Weather History for Thessaloniki, Greece

Change the Weather History Date:

Tuesday, October 9, 2012

  Actual Average Record
Temperature  
Mean Temperature 62 °F -  
Max Temperature 67 °F 67 °F 78 °F (2001)
Min Temperature 57 °F 49 °F 37 °F (2010)
Degree Days  
Heating Degree Days 3    
Growing Degree Days 12 (Base 50)    
Moisture  
Dew Point 43 °F    
Average Humidity 47    
Maximum Humidity 68    
Minimum Humidity 22    
Precipitation  
Precipitation 0.00 in 0.06 in - ()
Sea Level Pressure  
Sea Level Pressure 29.95 in    
Wind  
Wind Speed 3 mph ()    
Max Wind Speed 9 mph    
Max Gust Speed -    
Visibility 6.2 miles    
Events      
Averages and records for this station are not official NWS values.
T = Trace of Precipitation, MM = Missing Value Source: Averaged Metar Reports

Daily Weather History Graph

Daily Weather History Graph

Search for Another Location

Airport:

Trip Planner

Search our weather history database for the weather conditions in past years. The results will help you decide how hot, cold, wet, or windy it might be!

Date:

Astronomy

Oct. 09, 2012 Rise Set
Actual Time 7:32 AM EEST 6:56 PM EEST
Civil Twilight 7:05 AM EEST 7:24 PM EEST
Nautical Twilight 6:34 AM EEST 7:55 PM EEST
Astronomical Twilight 6:02 AM EEST 8:27 PM EEST
Moon 12:50 AM EEST (10/9) 3:14 PM EEST (10/9)
Length of Visible Light 12h 18m
Length of Day
11h 24m
Last Quarter, 40% of the Moon is Illuminated
Oct 9
Last Quarter
Oct 15
New
Oct 22
First Quarter
Oct 29
Full
Nov 7
Last Quarter

Hourly Weather History & Observations

Time (EEST) Temp. Dew Point Humidity Pressure Visibility Wind Dir Wind Speed Gust Speed Precip Events Conditions
12:20 AM 64.4 °F 33.8 °F 32% 29.98 in 6.2 mi North 6.9 mph - N/A   Scattered Clouds
12:50 AM 64.4 °F 32.0 °F 30% 29.98 in 6.2 mi North 9.2 mph - N/A   Scattered Clouds
1:20 AM 64.4 °F 32.0 °F 30% 29.98 in 6.2 mi NNE 4.6 mph - N/A   Scattered Clouds
1:50 AM 62.6 °F 30.2 °F 30% 29.98 in 6.2 mi Calm Calm - N/A   Scattered Clouds
2:20 AM 60.8 °F 30.2 °F 31% 29.98 in 6.2 mi Calm Calm - N/A   Scattered Clouds
3:00 AM 59 °F 30 °F 22% 29.99 in 6 mi Calm Calm - -   Partly Cloudy
3:50 AM 59.0 °F 32.0 °F 36% 29.98 in 6.2 mi Variable 3.5 mph - N/A   Scattered Clouds
4:20 AM 57.2 °F 32.0 °F 38% 29.98 in 6.2 mi Calm Calm - N/A   Scattered Clouds
4:50 AM 57.2 °F 33.8 °F 41% 29.95 in 6.2 mi Calm Calm - N/A   Scattered Clouds
5:20 AM 59.0 °F 35.6 °F 42% 29.98 in 6.2 mi Calm Calm - N/A   Scattered Clouds
5:50 AM 59.0 °F 35.6 °F 42% 29.98 in 6.2 mi Calm Calm - N/A   Scattered Clouds
6:20 AM 59.0 °F 35.6 °F 42% 29.98 in 6.2 mi Variable 3.5 mph - N/A   Mostly Cloudy
6:50 AM 59.0 °F 35.6 °F 42% 29.98 in 6.2 mi Variable 3.5 mph - N/A   Mostly Cloudy
7:20 AM 59.0 °F 37.4 °F 45% 29.98 in 6.2 mi Variable 1.2 mph - N/A   Mostly Cloudy
7:50 AM 59.0 °F 41.0 °F 51% 29.98 in 6.2 mi Variable 2.3 mph - N/A   Mostly Cloudy
8:20 AM 62.6 °F 41.0 °F 45% 29.98 in 6.2 mi Variable 3.5 mph - N/A   Mostly Cloudy
8:50 AM 62.6 °F 42.8 °F 48% 29.98 in 6.2 mi Variable 3.5 mph - N/A   Mostly Cloudy
9:00 AM 63 °F 43 °F 36% 29.99 in 6 mi 3.5 mph - -   Partly Cloudy
9:20 AM 62.6 °F 41.0 °F 45% 29.98 in 6.2 mi Variable 3.5 mph - N/A   Mostly Cloudy
9:50 AM 62.6 °F 42.8 °F 48% 29.98 in 6.2 mi Variable 3.5 mph - N/A   Mostly Cloudy
10:20 AM 62.6 °F 42.8 °F 48% 29.98 in 6.2 mi Variable 3.5 mph - N/A   Mostly Cloudy
10:50 AM 62.6 °F 42.8 °F 48% 29.98 in 6.2 mi Variable 3.5 mph - N/A   Mostly Cloudy
11:20 AM 64.4 °F 44.6 °F 49% 30.01 in 6.2 mi Variable 3.5 mph - N/A   Mostly Cloudy
11:50 AM 64.4 °F 44.6 °F 49% 29.98 in 6.2 mi Variable 1.2 mph - N/A   Mostly Cloudy
12:20 PM 64.4 °F 44.6 °F 49% 29.98 in 6.2 mi Variable 2.3 mph - N/A   Mostly Cloudy
12:50 PM 64.4 °F 46.4 °F 52% 29.98 in 6.2 mi Variable 1.2 mph - N/A   Mostly Cloudy
1:20 PM 66.2 °F 46.4 °F 49% 29.98 in 6.2 mi Variable 2.3 mph - N/A   Mostly Cloudy
1:50 PM 66.2 °F 46.4 °F 49% 29.98 in 6.2 mi Calm Calm - N/A   Mostly Cloudy
2:20 PM 66.2 °F 46.4 °F 49% 29.98 in 6.2 mi WNW 5.8 mph - N/A   Mostly Cloudy
2:50 PM 66.2 °F 46.4 °F 49% 29.95 in 6.2 mi East 4.6 mph - N/A   Scattered Clouds
3:00 PM 67 °F 46 °F 36% 29.96 in 6 mi East 4.6 mph - -   Partly Cloudy
3:20 PM 68.0 °F 46.4 °F 46% 29.92 in 6.2 mi Variable 3.5 mph - N/A   Scattered Clouds
3:50 PM 68.0 °F 46.4 °F 46% 29.92 in 6.2 mi SE 5.8 mph - N/A   Scattered Clouds
4:20 PM 68.0 °F 46.4 °F 46% 29.92 in 6.2 mi SE 5.8 mph - N/A   Scattered Clouds
4:50 PM 68.0 °F 46.4 °F 46% 29.92 in 6.2 mi Variable 3.5 mph - N/A   Scattered Clouds
5:20 PM 68.0 °F 46.4 °F 46% 29.92 in 6.2 mi Variable 3.5 mph - N/A   Scattered Clouds
5:50 PM 66.2 °F 48.2 °F 52% 29.92 in 6.2 mi South 8.1 mph - N/A   Mostly Cloudy
6:20 PM 66.2 °F 48.2 °F 52% 29.89 in 6.2 mi South 8.1 mph - N/A   Mostly Cloudy
6:50 PM 66.2 °F 48.2 °F 52% 29.89 in 6.2 mi SSW 5.8 mph - N/A   Mostly Cloudy
7:20 PM 66.2 °F 48.2 °F 52% 29.89 in 6.2 mi Variable 3.5 mph - N/A   Mostly Cloudy
7:50 PM 64.4 °F 50.0 °F 59% 29.92 in 6.2 mi Variable 3.5 mph - N/A   Mostly Cloudy
8:20 PM 64.4 °F 50.0 °F 59% 29.92 in 6.2 mi Variable 3.5 mph - N/A   Mostly Cloudy
8:50 PM 64.4 °F 50.0 °F 59% 29.89 in 6.2 mi Calm Calm - N/A   Mostly Cloudy
9:00 PM 64 °F 49 °F 48% 29.91 in 6 mi Calm Calm - -   Mostly Cloudy
9:50 PM 62.6 °F 48.2 °F 59% 29.89 in 6.2 mi Calm Calm - N/A   Mostly Cloudy
10:20 PM 62.6 °F 48.2 °F 59% 29.89 in 6.2 mi Calm Calm - N/A   Mostly Cloudy
10:50 PM 60.8 °F 50.0 °F 68% 29.89 in 6.2 mi Calm Calm - N/A   Mostly Cloudy
11:20 PM 60.8 °F 50.0 °F 68% 29.89 in 6.2 mi Calm Calm - N/A   Mostly Cloudy
11:50 PM 60.8 °F 50.0 °F 68% 29.89 in 6.2 mi Calm Calm - N/A   Mostly Cloudy